Location: Wanzleben
(52.0609°N, 11.4408°E)
Time: 02:42:10
(UTC+00:00)

Envisat - Pass Details

Date: 02 December 2020
Orbit: 764 x 766 km, 98.1° (Epoch: 20 January)

Event Time Altitude Azimuth Distance (km) Brightness Sun altitude
Rises 15:59:16 0° 162° (SSE) 3,223 6.3 -7.9°
Reaches altitude 10° 16:01:33 10° 163° (SSE) 2,301 5.6 -8.2°
Maximum altitude 16:06:38 88° 79° (ENE) 775 3.0 -9.0°
Drops below altitude 10° 16:11:46 10° 346° (NNW) 2,318 5.4 -9.7°
Sets 16:14:05 0° 346° (NNW) 3,249 6.2 -10.0°
